TimeEST,TemperatureF,Dew PointF,Humidity,Sea Level PressureIn,VisibilityMPH,Wind Direction,Wind SpeedMPH,Gust SpeedMPH,PrecipitationIn,Events,Conditions,WindDirDegrees,DateUTC
12:54 AM,19.0,15.1,85,30.16,10.0,West,6.9,-,N/A,,Partly Cloudy,280,2013-01-26 05:54:00
1:54 AM,17.1,14.0,88,30.18,10.0,West,5.8,-,N/A,,Partly Cloudy,260,2013-01-26 06:54:00
2:54 AM,18.0,15.1,88,30.19,10.0,West,5.8,-,N/A,,Partly Cloudy,260,2013-01-26 07:54:00
3:54 AM,16.0,14.0,92,30.20,8.0,WSW,5.8,-,N/A,,Scattered Clouds,250,2013-01-26 08:54:00
4:54 AM,12.9,12.0,96,30.21,8.0,West,5.8,-,N/A,,Mostly Cloudy,280,2013-01-26 09:54:00
5:54 AM,16.0,12.9,88,30.24,10.0,NW,4.6,-,N/A,,Overcast,310,2013-01-26 10:54:00
6:54 AM,15.1,12.0,88,30.27,10.0,NW,5.8,-,N/A,,Mostly Cloudy,310,2013-01-26 11:54:00
7:54 AM,14.0,10.9,88,30.31,8.0,West,6.9,-,N/A,,Mostly Cloudy,280,2013-01-26 12:54:00
8:54 AM,17.1,14.0,88,30.34,8.0,WNW,5.8,-,N/A,,Mostly Cloudy,300,2013-01-26 13:54:00
9:54 AM,21.0,14.0,74,30.35,10.0,NNW,10.4,-,N/A,,Scattered Clouds,340,2013-01-26 14:54:00
10:54 AM,25.0,15.1,66,30.38,10.0,NW,8.1,-,N/A,,Scattered Clouds,320,2013-01-26 15:54:00
11:54 AM,27.0,16.0,63,30.38,10.0,North,4.6,-,N/A,,Partly Cloudy,350,2013-01-26 16:54:00
12:54 PM,28.9,16.0,58,30.37,10.0,Variable,3.5,-,N/A,,Scattered Clouds,0,2013-01-26 17:54:00
1:54 PM,30.0,17.1,59,30.36,10.0,Calm,Calm,-,N/A,,Partly Cloudy,0,2013-01-26 18:54:00
2:54 PM,30.9,18.0,59,30.36,10.0,Calm,Calm,-,N/A,,Partly Cloudy,0,2013-01-26 19:54:00
3:54 PM,30.0,17.1,59,30.38,10.0,West,5.8,-,N/A,,Partly Cloudy,280,2013-01-26 20:54:00
4:54 PM,30.0,16.0,56,30.39,10.0,WNW,3.5,-,N/A,,Partly Cloudy,300,2013-01-26 21:54:00
5:54 PM,27.0,17.1,66,30.38,10.0,NNW,4.6,-,N/A,,Partly Cloudy,340,2013-01-26 22:54:00
6:54 PM,25.0,16.0,69,30.40,10.0,North,5.8,-,N/A,,Partly Cloudy,10,2013-01-26 23:54:00
7:54 PM,25.0,17.1,72,30.42,10.0,East,4.6,-,N/A,,Clear,80,2013-01-27 00:54:00
8:54 PM,24.1,16.0,71,30.42,10.0,ENE,8.1,-,N/A,,Clear,70,2013-01-27 01:54:00
9:54 PM,23.0,16.0,74,30.44,8.0,East,4.6,-,N/A,,Clear,90,2013-01-27 02:54:00
10:54 PM,19.9,15.1,81,30.43,10.0,ESE,6.9,-,N/A,,Partly Cloudy,110,2013-01-27 03:54:00
11:54 PM,21.0,15.1,78,30.42,10.0,East,8.1,-,N/A,,Partly Cloudy,100,2013-01-27 04:54:00